Weather History for Richmond, KY

Change the Weather History Date:

Tuesday, May 28, 2013

  Actual Average (KLOZ) Record (KLOZ)
Temperature  
Mean Temperature 76 °F 68 °F  
Max Temperature 84 °F 79 °F 89 °F (2006)
Min Temperature 68 °F 57 °F 34 °F (1961)
Degree Days  
Heating Degree Days 0 1  
Month to date heating degree days 91  
Since 1 July heating degree days 4192  
Cooling Degree Days 11 4  
Month to date cooling degree days 73  
Year to date cooling degree days 99  
Growing Degree Days 26 (Base 50)    
Moisture  
Dew Point 57 °F    
Average Humidity 53    
Maximum Humidity 68    
Minimum Humidity 33    
Precipitation  
Precipitation 0.00 in 0.17 in 1.68 in (1996)
Month to date precipitation 4.66  
Year to date precipitation 20.01  
Sea Level Pressure  
Sea Level Pressure 30.07 in    
Wind  
Wind Speed 9 mph (SSW)    
Max Wind Speed 17 mph    
Max Gust Speed 24 mph    
Visibility 10 miles    
Events      
T = Trace of Precipitation, MM = Missing Value Source: NWS Daily Summary

Daily Weather History Graph

Daily Weather History Graph

Search for Another Location

Airport:

Trip Planner

Search our weather history database for the weather conditions in past years. The results will help you decide how hot, cold, wet, or windy it might be!

Date:

Astronomy

May. 28, 2013 Rise Set
Actual Time 6:19 AM EDT 8:50 PM EDT
Civil Twilight 5:48 AM EDT 9:21 PM EDT
Nautical Twilight 5:11 AM EDT 9:58 PM EDT
Astronomical Twilight 4:29 AM EDT 10:40 PM EDT
Moon No Moon Rise 10:04 AM EDT (5/28)
Length of Visible Light 15h 32m
Length of Day
14h 31m
Waning Gibbous, 83% of the Moon is Illuminated
May 28
Waning Gibbous
May 31
Last Quarter
Jun 8
New
Jun 16
First Quarter
Jun 23
Full

Hourly Weather History & Observations

Time (EDT) Temp. Heat Index Dew Point Humidity Pressure Visibility Wind Dir Wind Speed Gust Speed Precip Events Conditions
12:15 AM 73.4 °F - 55.4 °F 53% 30.07 in 10.0 mi South 8.1 mph - N/A   Scattered Clouds
12:35 AM 71.6 °F - 55.4 °F 57% 30.07 in 10.0 mi SSW 9.2 mph - N/A   Clear
12:55 AM 71.6 °F - 55.4 °F 57% 30.06 in 10.0 mi South 8.1 mph - N/A   Clear
1:15 AM 71.6 °F - 55.4 °F 57% 30.07 in 10.0 mi SSW 5.8 mph - N/A   Clear
1:35 AM 71.6 °F - 55.4 °F 57% 30.06 in 10.0 mi South 8.1 mph - N/A   Scattered Clouds
1:55 AM 69.8 °F - 55.4 °F 60% 30.05 in 10.0 mi SSW 6.9 mph - N/A   Clear
2:15 AM 69.8 °F - 55.4 °F 60% 30.05 in 10.0 mi SSW 6.9 mph - N/A   Clear
2:35 AM 69.8 °F - 55.4 °F 60% 30.05 in 10.0 mi SSW 6.9 mph - N/A   Clear
2:55 AM 69.8 °F - 55.4 °F 60% 30.05 in 10.0 mi South 8.1 mph - N/A   Clear
3:15 AM 69.8 °F - 57.2 °F 64% 30.05 in 10.0 mi South 8.1 mph - N/A   Clear
3:35 AM 68.0 °F - 57.2 °F 68% 30.05 in 10.0 mi SSW 6.9 mph - N/A   Clear
3:55 AM 68.0 °F - 57.2 °F 68% 30.06 in 10.0 mi SSW 4.6 mph - N/A   Clear
4:15 AM 68.0 °F - 57.2 °F 68% 30.06 in 10.0 mi SSW 6.9 mph - N/A   Clear
4:35 AM 68.0 °F - 57.2 °F 68% 30.07 in 10.0 mi South 6.9 mph - N/A   Clear
4:55 AM 68.0 °F - 57.2 °F 68% 30.07 in 10.0 mi South 8.1 mph - N/A   Clear
5:15 AM 69.8 °F - 57.2 °F 64% 30.07 in 10.0 mi SSW 6.9 mph - N/A   Scattered Clouds
5:35 AM 68.0 °F - 57.2 °F 68% 30.07 in 10.0 mi SSW 6.9 mph - N/A   Mostly Cloudy
5:55 AM 68.0 °F - 57.2 °F 68% 30.08 in 10.0 mi South 8.1 mph - N/A   Scattered Clouds
6:15 AM 68.0 °F - 57.2 °F 68% 30.09 in 10.0 mi South 8.1 mph - N/A   Clear
6:35 AM 68.0 °F - 57.2 °F 68% 30.09 in 10.0 mi South 9.2 mph - N/A   Scattered Clouds
6:55 AM 69.8 °F - 57.2 °F 64% 30.09 in 10.0 mi South 8.1 mph - N/A   Scattered Clouds
7:15 AM 69.8 °F - 57.2 °F 64% 30.09 in 10.0 mi South 5.8 mph - N/A   Clear
7:35 AM 69.8 °F - 57.2 °F 64% 30.10 in 10.0 mi SSW 8.1 mph - N/A   Scattered Clouds
7:55 AM 69.8 °F - 57.2 °F 64% 30.10 in 10.0 mi South 8.1 mph - N/A   Mostly Cloudy
8:15 AM 69.8 °F - 57.2 °F 64% 30.11 in 10.0 mi South 8.1 mph - N/A   Scattered Clouds
8:35 AM 69.8 °F - 57.2 °F 64% 30.12 in 10.0 mi SSW 6.9 mph - N/A   Scattered Clouds
8:55 AM 69.8 °F - 59.0 °F 68% 30.12 in 10.0 mi South 8.1 mph - N/A   Scattered Clouds
9:15 AM 71.6 °F - 59.0 °F 64% 30.12 in 10.0 mi South 10.4 mph - N/A   Clear
9:35 AM 73.4 °F - 59.0 °F 61% 30.13 in 7.0 mi SSW 9.2 mph - N/A   Clear
9:55 AM 75.2 °F - 59.0 °F 57% 30.12 in 10.0 mi SSW 11.5 mph 16.1 mph N/A   Clear
10:15 AM 77.0 °F - 59.0 °F 54% 30.13 in 10.0 mi SSW 13.8 mph 18.4 mph N/A   Clear
10:35 AM 75.2 °F - 59.0 °F 57% 30.13 in 10.0 mi SSW 12.7 mph 18.4 mph N/A   Clear
10:55 AM 77.0 °F - 59.0 °F 54% 30.13 in 10.0 mi SSW 11.5 mph 16.1 mph N/A   Clear
11:15 AM 77.0 °F - 59.0 °F 54% 30.13 in 7.0 mi SSW 13.8 mph 19.6 mph N/A   Clear
11:35 AM 78.8 °F - 59.0 °F 51% 30.12 in 10.0 mi SW 12.7 mph 18.4 mph N/A   Clear
11:55 AM 80.6 °F 81.1 °F 59.0 °F 48% 30.12 in 10.0 mi SW 13.8 mph 17.3 mph N/A   Clear
12:15 PM 80.6 °F 81.1 °F 59.0 °F 48% 30.11 in 10.0 mi SW 13.8 mph 21.9 mph N/A   Clear
12:35 PM 82.4 °F 82.5 °F 59.0 °F 45% 30.11 in 10.0 mi SW 10.4 mph - N/A   Clear
12:55 PM 82.4 °F 82.0 °F 57.2 °F 42% 30.11 in 10.0 mi SW 13.8 mph 24.2 mph N/A   Clear
1:15 PM 82.4 °F 82.0 °F 57.2 °F 42% 30.11 in 10.0 mi SW 16.1 mph 21.9 mph N/A   Scattered Clouds
1:35 PM 82.4 °F 82.0 °F 57.2 °F 42% 30.10 in 10.0 mi SW 15.0 mph 21.9 mph N/A   Scattered Clouds
1:55 PM 82.4 °F 81.7 °F 55.4 °F 39% 30.11 in 10.0 mi SW 13.8 mph - N/A   Scattered Clouds
2:15 PM 80.6 °F 80.8 °F 57.2 °F 45% 30.10 in 7.0 mi SSW 12.7 mph 19.6 mph N/A   Mostly Cloudy
2:35 PM 82.4 °F 82.0 °F 57.2 °F 42% 30.10 in 10.0 mi SW 10.4 mph 17.3 mph N/A   Scattered Clouds
2:55 PM 84.2 °F 83.8 °F 59.0 °F 42% 30.09 in 10.0 mi SW 10.4 mph 19.6 mph N/A   Scattered Clouds
3:15 PM 84.2 °F 83.5 °F 57.2 °F 40% 30.08 in 10.0 mi WSW 13.8 mph 18.4 mph N/A   Scattered Clouds
3:35 PM 84.2 °F 83.0 °F 55.4 °F 37% 30.08 in 10.0 mi South 13.8 mph 23.0 mph N/A   Scattered Clouds
3:55 PM 84.2 °F 83.0 °F 55.4 °F 37% 30.08 in 10.0 mi SW 15.0 mph 19.6 mph N/A   Scattered Clouds
4:15 PM 84.2 °F 82.8 °F 53.6 °F 35% 30.06 in 10.0 mi SW 13.8 mph 24.2 mph N/A   Scattered Clouds
4:35 PM 84.2 °F - 51.8 °F 33% 30.06 in 10.0 mi SW 17.3 mph 20.7 mph N/A   Clear
4:55 PM 84.2 °F 82.8 °F 53.6 °F 35% 30.05 in 10.0 mi SSW 9.2 mph 20.7 mph N/A   Clear
5:15 PM 84.2 °F 83.0 °F 55.4 °F 37% 30.05 in 10.0 mi SSW 12.7 mph 20.7 mph N/A   Clear
5:35 PM 84.2 °F - 51.8 °F 33% 30.05 in 10.0 mi SW 11.5 mph 21.9 mph N/A   Clear
5:55 PM 84.2 °F - 51.8 °F 33% 30.05 in 10.0 mi SSW 11.5 mph 20.7 mph N/A   Clear
6:15 PM 84.2 °F 82.8 °F 53.6 °F 35% 30.04 in 10.0 mi SW 12.7 mph - N/A   Clear
6:35 PM 82.4 °F 81.4 °F 53.6 °F 37% 30.04 in 10.0 mi SW 8.1 mph 19.6 mph N/A   Clear
6:55 PM 82.4 °F 81.7 °F 55.4 °F 39% 30.03 in 10.0 mi SW 8.1 mph - N/A   Clear
7:15 PM 82.4 °F 81.7 °F 55.4 °F 39% 30.03 in 10.0 mi SW 10.4 mph - N/A   Clear
7:35 PM 80.6 °F 80.5 °F 55.4 °F 42% 30.02 in 10.0 mi SW 9.2 mph - N/A   Clear
7:55 PM 80.6 °F 80.8 °F 57.2 °F 45% 30.03 in 10.0 mi SSW 8.1 mph - N/A   Clear
8:15 PM 78.8 °F - 57.2 °F 47% 30.02 in 10.0 mi SSW 4.6 mph - N/A   Clear
8:35 PM 77.0 °F - 57.2 °F 50% 30.03 in 10.0 mi SSW 3.5 mph - N/A   Clear
8:55 PM 77.0 °F - 57.2 °F 50% 30.03 in 10.0 mi SSW 3.5 mph - N/A   Clear
9:15 PM 75.2 °F - 57.2 °F 53% 30.03 in 10.0 mi SSW 4.6 mph - N/A   Clear
9:35 PM 75.2 °F - 57.2 °F 53% 30.04 in 10.0 mi SSW 4.6 mph - N/A   Clear
9:55 PM 75.2 °F - 57.2 °F 53% 30.05 in 10.0 mi SSW 5.8 mph - N/A   Clear
10:15 PM 73.4 °F - 57.2 °F 57% 30.06 in 10.0 mi South 5.8 mph - N/A   Clear
10:35 PM 73.4 °F - 57.2 °F 57% 30.06 in 10.0 mi South 4.6 mph - N/A   Clear
10:55 PM 73.4 °F - 57.2 °F 57% 30.05 in 10.0 mi South 5.8 mph - N/A   Clear
11:15 PM 73.4 °F - 57.2 °F 57% 30.05 in 10.0 mi SSW 5.8 mph - N/A   Clear
11:35 PM 73.4 °F - 57.2 °F 57% 30.05 in 10.0 mi SSW 6.9 mph - N/A   Clear
11:55 PM 73.4 °F - 57.2 °F 57% 30.07 in 10.0 mi SSW 6.9 mph - N/A   Clear